When you browse on this site, cookies collect data to enhance your experience and personalize the content and advertising you see.
Visit our Privacy Policy to learn more. By continuing to use the site, you agree to this use of cookies and data.

Hourly Weather Vesnik

Today, 7 July, Tuesday

Time Temperature Precipitation Wind Pressure Humidity
00:00 +20°C° 0.9 mm 2 mps 740 mmHg 93%
01:00 +19°C° 0.9 mm 2 mps 740 mmHg 95%
02:00 +18°C° 0.9 mm 2 mps 740 mmHg 96%
03:00 +18°C° 0.3 mm 2 mps 740 mmHg 96%
04:00 +18°C° 0.3 mm 3 mps 740 mmHg 96%
05:00 +18°C° 0.3 mm 3 mps 740 mmHg 96%
06:00 +18°C° 0.2 mm 3 mps 740 mmHg 94%
07:00 +18°C° 0.2 mm 3 mps 740 mmHg 93%
08:00 +19°C° 0.2 mm 3 mps 741 mmHg 92%
09:00 +18°C° 0.1 mm 4 mps 741 mmHg 91%
10:00 +17°C° 0.1 mm 5 mps 741 mmHg 89%
11:00 +17°C° 0.1 mm 6 mps 741 mmHg 88%
12:00 +17°C° 0 mm 6 mps 741 mmHg 84%
13:00 +16°C° 0 mm 6 mps 741 mmHg 80%
14:00 +16°C° 0 mm 6 mps 742 mmHg 75%
15:00 +15°C° 0 mm 6 mps 741 mmHg 75%
16:00 +15°C° 0 mm 6 mps 741 mmHg 75%
17:00 +15°C° 0 mm 5 mps 741 mmHg 75%
18:00 +14°C° 0 mm 5 mps 741 mmHg 74%
19:00 +14°C° 0 mm 5 mps 742 mmHg 73%
20:00 +14°C° 0 mm 5 mps 742 mmHg 72%
21:00 +14°C° 0 mm 4 mps 742 mmHg 76%
22:00 +13°C° 0 mm 4 mps 742 mmHg 81%
23:00 +13°C° 0 mm 4 mps 742 mmHg 85%

Tomorrow, 8 July, Wednesday

Time Temperature Precipitation Wind Pressure Humidity
00:00 +13°C° 0 mm 4 mps 742 mmHg 86%
01:00 +13°C° 0 mm 4 mps 743 mmHg 86%
02:00 +13°C° 0 mm 4 mps 743 mmHg 87%
03:00 +13°C° 0 mm 4 mps 743 mmHg 87%
04:00 +12°C° 0 mm 4 mps 743 mmHg 87%
05:00 +12°C° 0 mm 4 mps 743 mmHg 86%
06:00 +13°C° 0 mm 4 mps 743 mmHg 83%
07:00 +14°C° 0 mm 4 mps 744 mmHg 79%
08:00 +15°C° 0 mm 4 mps 744 mmHg 75%
09:00 +17°C° 0 mm 4 mps 744 mmHg 70%
10:00 +18°C° 0 mm 4 mps 744 mmHg 66%
11:00 +18°C° 0 mm 4 mps 745 mmHg 62%
12:00 +19°C° 0 mm 4 mps 745 mmHg 60%
13:00 +20°C° 0 mm 4 mps 745 mmHg 58%
14:00 +20°C° 0 mm 4 mps 745 mmHg 56%
15:00 +20°C° 0 mm 4 mps 745 mmHg 57%
16:00 +20°C° 0 mm 4 mps 745 mmHg 58%
17:00 +20°C° 0 mm 3 mps 745 mmHg 59%
18:00 +18°C° 0 mm 3 mps 745 mmHg 68%
19:00 +17°C° 0 mm 3 mps 745 mmHg 76%
20:00 +15°C° 0 mm 2 mps 745 mmHg 84%
21:00 +14°C° 0 mm 2 mps 745 mmHg 87%
22:00 +13°C° 0 mm 2 mps 745 mmHg 89%
23:00 +13°C° 0 mm 2 mps 745 mmHg 92%

Day after tomorrow, 9 July, Thursday

Time Temperature Precipitation Wind Pressure Humidity
00:00 +13°C° 0 mm 2 mps 745 mmHg 92%
01:00 +13°C° 0 mm 2 mps 745 mmHg 92%
02:00 +13°C° 0 mm 2 mps 746 mmHg 92%
03:00 +13°C° 0.1 mm 2 mps 746 mmHg 92%
04:00 +13°C° 0.1 mm 2 mps 746 mmHg 92%
05:00 +13°C° 0.1 mm 2 mps 746 mmHg 92%
06:00 +13°C° 0.4 mm 2 mps 746 mmHg 92%
07:00 +13°C° 0.4 mm 2 mps 747 mmHg 92%
08:00 +13°C° 0.4 mm 2 mps 747 mmHg 92%
09:00 +15°C° 0.3 mm 2 mps 747 mmHg 86%
10:00 +16°C° 0.3 mm 1 mps 748 mmHg 79%
11:00 +19°C° 0.3 mm 1 mps 748 mmHg 73%
12:00 +18°C° 0.7 mm 2 mps 748 mmHg 74%
13:00 +18°C° 0.7 mm 3 mps 748 mmHg 74%
14:00 +18°C° 0.7 mm 3 mps 748 mmHg 75%
15:00 +19°C° 0.1 mm 4 mps 748 mmHg 70%
16:00 +19°C° 0.1 mm 4 mps 748 mmHg 65%
17:00 +19°C° 0.1 mm 4 mps 748 mmHg 60%
18:00 +18°C° 0 mm 3 mps 748 mmHg 67%
19:00 +17°C° 0 mm 3 mps 749 mmHg 74%
20:00 +15°C° 0 mm 2 mps 749 mmHg 81%
21:00 +14°C° 0 mm 2 mps 749 mmHg 84%
22:00 +13°C° 0 mm 2 mps 749 mmHg 87%
23:00 +12°C° 0 mm 2 mps 750 mmHg 90%

10 July, Friday

Time Temperature Precipitation Wind Pressure Humidity
00:00 +12°C° 0 mm 2 mps 750 mmHg 91%
01:00 +12°C° 0 mm 2 mps 750 mmHg 93%
02:00 +10°C° 0 mm 2 mps 750 mmHg 94%
03:00 +11°C° 0 mm 1 mps 750 mmHg 93%
04:00 +12°C° 0 mm 1 mps 751 mmHg 93%
05:00 +12°C° 0 mm 1 mps 751 mmHg 93%
06:00 +14°C° 0 mm 2 mps 751 mmHg 86%
07:00 +16°C° 0 mm 2 mps 751 mmHg 79%
08:00 +18°C° 0 mm 2 mps 751 mmHg 72%
09:00 +19°C° 0 mm 2 mps 751 mmHg 66%
10:00 +20°C° 0 mm 3 mps 751 mmHg 61%
11:00 +21°C° 0 mm 3 mps 751 mmHg 55%
12:00 +22°C° 0 mm 3 mps 751 mmHg 55%
13:00 +22°C° 0 mm 3 mps 751 mmHg 54%
14:00 +24°C° 0 mm 3 mps 750 mmHg 53%
15:00 +24°C° 0 mm 3 mps 750 mmHg 56%
16:00 +22°C° 0 mm 4 mps 750 mmHg 59%
17:00 +22°C° 0 mm 4 mps 749 mmHg 62%
18:00 +21°C° 0 mm 3 mps 749 mmHg 68%
19:00 +19°C° 0 mm 3 mps 749 mmHg 74%
20:00 +18°C° 0 mm 3 mps 749 mmHg 79%
21:00 +18°C° 0 mm 3 mps 749 mmHg 80%
22:00 +17°C° 0 mm 3 mps 749 mmHg 80%
23:00 +17°C° 0 mm 4 mps 749 mmHg 80%

11 July, Saturday

Time Temperature Precipitation Wind Pressure Humidity
00:00 +15°C° 0 mm 4 mps 749 mmHg 81%
01:00 +15°C° 0 mm 4 mps 748 mmHg 82%
02:00 +15°C° 0 mm 4 mps 748 mmHg 83%
03:00 +15°C° 0 mm 5 mps 748 mmHg 83%
04:00 +15°C° 0 mm 5 mps 748 mmHg 83%
05:00 +15°C° 0 mm 5 mps 748 mmHg 82%
06:00 +17°C° 0 mm 5 mps 748 mmHg 81%
07:00 +19°C° 0 mm 5 mps 748 mmHg 79%
08:00 +20°C° 0 mm 5 mps 748 mmHg 77%
09:00 +21°C° 0.1 mm 5 mps 748 mmHg 77%
10:00 +22°C° 0.1 mm 4 mps 748 mmHg 76%
11:00 +23°C° 0.1 mm 4 mps 749 mmHg 76%
12:00 +23°C° 0.6 mm 4 mps 749 mmHg 80%
13:00 +22°C° 0.6 mm 4 mps 749 mmHg 84%
14:00 +22°C° 0.6 mm 4 mps 749 mmHg 87%
15:00 +21°C° 0.7 mm 3 mps 748 mmHg 86%
16:00 +20°C° 0.7 mm 3 mps 748 mmHg 84%
17:00 +20°C° 0.7 mm 2 mps 748 mmHg 82%
18:00 +19°C° 0.1 mm 2 mps 748 mmHg 83%
19:00 +18°C° 0.1 mm 2 mps 748 mmHg 83%
20:00 +18°C° 0.1 mm 1 mps 748 mmHg 84%
21:00 +16°C° 0 mm 2 mps 748 mmHg 85%
22:00 +15°C° 0 mm 2 mps 748 mmHg 87%
23:00 +14°C° 0 mm 2 mps 748 mmHg 88%

12 July, Sunday

Time Temperature Precipitation Wind Pressure Humidity
00:00 +13°C° 0.1 mm 3 mps 748 mmHg 88%
01:00 +13°C° 0.1 mm 3 mps 748 mmHg 87%
02:00 +12°C° 0.1 mm 4 mps 748 mmHg 86%
03:00 +12°C° 1 mm 3 mps 748 mmHg 89%
04:00 +12°C° 1 mm 3 mps 748 mmHg 93%
05:00 +12°C° 1 mm 2 mps 748 mmHg 97%
06:00 +13°C° 1.3 mm 2 mps 748 mmHg 97%
07:00 +13°C° 1.3 mm 2 mps 748 mmHg 97%
08:00 +13°C° 1.3 mm 2 mps 748 mmHg 97%
09:00 +14°C° 0.3 mm 2 mps 748 mmHg 95%
10:00 +14°C° 0.3 mm 2 mps 748 mmHg 93%
11:00 +15°C° 0.3 mm 2 mps 749 mmHg 91%
12:00 +17°C° 0.2 mm 2 mps 749 mmHg 82%
13:00 +18°C° 0.2 mm 2 mps 748 mmHg 73%
14:00 +20°C° 0.2 mm 2 mps 748 mmHg 63%
15:00 +20°C° 0.1 mm 2 mps 748 mmHg 64%
16:00 +20°C° 0.1 mm 2 mps 748 mmHg 65%
17:00 +20°C° 0.1 mm 2 mps 748 mmHg 65%
18:00 +18°C° 0.3 mm 2 mps 748 mmHg 73%
19:00 +17°C° 0.3 mm 2 mps 748 mmHg 80%
20:00 +15°C° 0.3 mm 2 mps 748 mmHg 88%
21:00 +14°C° 0 mm 2 mps 748 mmHg 90%
22:00 +13°C° 0 mm 2 mps 748 mmHg 92%
23:00 +13°C° 0 mm 2 mps 748 mmHg 94%
Show more